[[{"header":{"parameterUnit":"m.s-1","parameterCategory":1,"la1":30.2991,"la2":30.254,"lo1":-89.0895,"lo2":-89.0444,"dy":0.0017,"dx":0.0017,"nx":28,"ny":28,"refTime":"2024-08-14T21:00:00:Z","depth":0,"parameterNumber":2,"parameterNumberName":"U-component_of_WINDS"},"data":[0,0,0,0,0,0,0,0,0,0,0,0,0,0,0,0,0,0,0,0,0,0,0,0,0,0,0,0,0,0,0,0,0,0,0,0,0,0,0,0,0,0,0,0,0,0,0,0,0,0,0,0,0,0,0,0,0,0,0.4352,0.4352,0,0.4377,0.4378,0.4378,0.4371,0.437,0.4369,0.4369,0.4395,0.4396,0.4398,0,0,0,0,0,0,0,0,0,0,0,0,0,0.4297,0.4298,0.4352,0.4352,0.4353,0.4377,0.4378,0.4378,0.4371,0.437,0.4369,0.4369,0.4395,0.4396,0.4398,0,0,0,0,0,0,0,0,0,0,0,0,0,0.4321,0.4298,0.4352,0.4352,0.4352,0.4377,0.4378,0.4378,0.4371,0.437,0.4369,0.4368,0.4394,0.4396,0.4398,0.4425,0,0,0.4403,0.4404,0,0,0,0,0,0,0,0,0.432,0.4323,0.4352,0.4352,0.4352,0.437,0.4368,0.4394,0.4371,0.4364,0.4369,0.4368,0.4387,0.439,0.4396,0.4426,0.4427,0.4403,0.4405,0.4405,0.4406,0,0,0,0,0,0,0,0.4318,0.4322,0.4362,0.4352,0.4352,0.4351,0.4353,0.4373,0.438,0.4364,0.4364,0.4367,0.4387,0.4395,0.4397,0.4427,0.4403,0.4405,0.4406,0.4407,0.448,0.4481,0,0,0,0,0,0,0.4316,0.4321,0.4361,0.4363,0.4334,0.4352,0.4355,0.4365,0.4379,0.4381,0.4368,0.4366,0.4392,0.4395,0.4398,0.443,0.4405,0.4407,0.4408,0.4479,0.4481,0.4481,0,0,0,0,0,0,0.4315,0.432,0.436,0.4342,0.4347,0.4354,0.4365,0.4366,0.4373,0.4382,0.4383,0.4373,0.4391,0.4395,0.4418,0.4431,0.4408,0.4409,0.4478,0.448,0.4481,0.4495,0,0,0,0,0,0,0.4314,0.432,0.433,0.4342,0.4348,0.438,0.4366,0.4367,0.4376,0.4375,0.4388,0.4389,0.4391,0.4415,0.442,0.4433,0.4411,0.4477,0.4479,0.4481,0.4493,0.4496,0.4499,0,0,0,0,0,0.4312,0.4333,0.4331,0.4335,0.4361,0.4381,0.4384,0.4386,0.4377,0.4388,0.4393,0.4389,0.4429,0.4418,0.4423,0.4436,0.4476,0.4479,0.448,0.4492,0.4496,0.4499,0,0,0,0,0,0,0.4322,0.4334,0.4332,0.4358,0.4368,0.4379,0.4392,0.439,0.4403,0.4401,0.4403,0.4406,0.4429,0.4435,0.4423,0.4463,0.4451,0.4454,0.4458,0.4462,0.4465,0.4463,0.4412,0,0,0,0,0,0.4327,0.4342,0.4352,0.4374,0.438,0.4385,0.4394,0.4394,0.4405,0.441,0.4417,0.4428,0.4443,0.4453,0.4467,0.4494,0.4497,0.4506,0.4509,0.4511,0.4514,0.4528,0.4532,0.4488,0.4488,0.4488,0,0,0.4338,0.4347,0.4356,0.4376,0.4385,0.44,0.4389,0.4406,0.4418,0.4413,0.4434,0.444,0.4453,0.4477,0.4489,0.4483,0.4526,0.4514,0.4516,0.4517,0.453,0.4535,0.4538,0.4489,0.4489,0.4489,0,0,0.4366,0.4374,0.4393,0.4401,0.4414,0.4418,0.4422,0.4434,0.4438,0.446,0.4456,0.447,0.4496,0.4505,0.4513,0.4544,0.454,0.4549,0.4564,0.4578,0.4581,0.4584,0.4595,0.4599,0.4551,0.4551,0.4551,0,0.4377,0.4401,0.4403,0.442,0.4429,0.4425,0.4444,0.4452,0.4469,0.4475,0.4469,0.4501,0.4509,0.4536,0.4544,0.455,0.4555,0.4547,0.4581,0.4584,0.4587,0.4597,0.4601,0.4552,0.4552,0.4552,0.4552,0,0.4415,0.4431,0.4445,0.4461,0.4471,0.449,0.4494,0.4505,0.4504,0.4509,0.4531,0.4541,0.4557,0.4563,0.4563,0.459,0.4586,0.458,0.4568,0.4592,0.4602,0.4606,0.4554,0.4553,0.4553,0.4553,0,0,0.4448,0.4466,0.4471,0.4478,0.4492,0.4505,0.4523,0.4539,0.4547,0.4559,0.4574,0.4596,0.4591,0.46,0.4601,0.4613,0.4637,0.4606,0.4606,0.4611,0.4667,0.4671,0.4675,0.4635,0.4636,0.4637,0.4666,0,0.4477,0.4508,0.4511,0.4539,0.4554,0.4551,0.4567,0.4577,0.4582,0.4596,0.4601,0.4616,0.4608,0.4614,0.4626,0.4632,0.4648,0.463,0.4649,0.465,0.4645,0.4681,0.4685,0.4712,0.467,0.467,0.4671,0,0.4514,0.4527,0.4557,0.4569,0.4575,0.4589,0.4604,0.4617,0.4629,0.4631,0.4642,0.4641,0.4659,0.4647,0.4673,0.466,0.4668,0.4672,0.4674,0.4675,0.4661,0.4682,0.472,0.4724,0.4677,0.4676,0.4676,0,0.4535,0.456,0.4581,0.4588,0.4602,0.4612,0.4619,0.463,0.4639,0.4652,0.4658,0.4673,0.4681,0.4693,0.4696,0.4687,0.4721,0.471,0.4724,0.4724,0.4731,0.473,0.477,0.4737,0.4737,0.4737,0.4737,0,0.4566,0.4584,0.4591,0.4604,0.4624,0.4627,0.4647,0.4653,0.4663,0.4677,0.4676,0.4689,0.4693,0.4707,0.471,0.473,0.4734,0.4736,0.4737,0.4736,0.4736,0.4741,0.4739,0.4738,0.4738,0.4737,0.4737,0,0.4592,0.4598,0.462,0.4633,0.4636,0.4651,0.4661,0.4673,0.4678,0.4696,0.47,0.4708,0.4724,0.4729,0.4748,0.475,0.4774,0.4773,0.477,0.477,0.4784,0.4782,0.4828,0.4834,0.4797,0.4798,0.4798,0,0.4611,0.4625,0.4639,0.4648,0.4655,0.4671,0.468,0.4684,0.4694,0.4708,0.4719,0.4735,0.4748,0.4775,0.4782,0.4797,0.4796,0.4811,0.4798,0.4797,0.4795,0.4794,0.4795,0.4813,0.4813,0.4814,0.4814,0,0.4644,0.4646,0.466,0.4675,0.4687,0.4699,0.471,0.4718,0.4723,0.4734,0.4751,0.4761,0.4782,0.4797,0.4813,0.482,0.4818,0.4818,0.4822,0.4821,0.4818,0.4819,0.4776,0.4817,0.4816,0.4816,0.4816,0.4816,0.4667,0.4679,0.4691,0.4707,0.4716,0.4727,0.4739,0.4745,0.4759,0.4776,0.4777,0.4795,0.4807,0.4827,0.4835,0.4849,0.4845,0.4851,0.4852,0.4853,0.4854,0.4817,0.4852,0.4852,0.4852,0.4852,0.4852,0,0.4699,0.4707,0.4721,0.4737,0.475,0.4747,0.476,0.477,0.4786,0.4797,0.481,0.483,0.4845,0.4854,0.4869,0.4879,0.4879,0.4883,0.4882,0.4884,0.4857,0.4852,0.4883,0.4883,0.4883,0.4883,0.4883,0.4883,0.4717,0.4738,0.4742,0.4767,0.4774,0.4792,0.4799,0.4809,0.4818,0.484,0.4853,0.4859,0.4869,0.4885,0.4899,0.4901,0.4907,0.4912,0.4913,0.4889,0.4885,0.4882,0.4877,0.4913,0.4913,0.4938,0.4938,0.4939]},{"header":{"parameterUnit":"m.s-1","parameterCategory":1,"la1":30.2991,"la2":30.254,"lo1":-89.0895,"lo2":-89.0444,"dy":0.0017,"dx":0.0017,"nx":28,"ny":28,"refTime":"2024-08-14T21:00:00:Z","depth":0,"parameterNumber":3,"parameterNumberName":"V-component_of_WINDS"},"data":[0,0,0,0,0,0,0,0,0,0,0,0,0,0,0,0,0,0,0,0,0,0,0,0,0,0,0,0,0,0,0,0,0,0,0,0,0,0,0,0,0,0,0,0,0,0,0,0,0,0,0,0,0,0,0,0,0,0,2.75,2.75,0,2.7528,2.7528,2.7529,2.7519,2.7518,2.7518,2.7517,2.7542,2.7544,2.7545,0,0,0,0,0,0,0,0,0,0,0,0,0,2.7433,2.7434,2.75,2.75,2.75,2.7528,2.7529,2.7529,2.7519,2.7518,2.7517,2.7517,2.7542,2.7543,2.7545,0,0,0,0,0,0,0,0,0,0,0,0,0,2.7462,2.7435,2.75,2.7499,2.7499,2.7528,2.7529,2.7529,2.7519,2.7518,2.7517,2.7516,2.7541,2.7543,2.7545,2.7575,0,0,2.7551,2.7552,0,0,0,0,0,0,0,0,2.746,2.7464,2.7499,2.7499,2.7499,2.7519,2.7514,2.7544,2.7519,2.7511,2.7517,2.7516,2.7535,2.7537,2.7545,2.7577,2.7578,2.7551,2.7552,2.7553,2.7554,0,0,0,0,0,0,0,2.7458,2.7463,2.7511,2.7499,2.7499,2.7496,2.7499,2.752,2.7528,2.7512,2.7511,2.7515,2.7535,2.7543,2.7545,2.7578,2.7551,2.7553,2.7554,2.7555,2.7636,2.7637,0,0,0,0,0,0,2.7456,2.7461,2.751,2.7512,2.7477,2.7498,2.7501,2.7514,2.7528,2.7529,2.7516,2.7514,2.754,2.7543,2.7546,2.7582,2.7553,2.7555,2.7556,2.7635,2.7636,2.7637,0,0,0,0,0,0,2.7455,2.7461,2.7509,2.7486,2.7492,2.75,2.7514,2.7515,2.7522,2.7531,2.7532,2.7523,2.754,2.7543,2.7568,2.7583,2.7556,2.7557,2.7634,2.7635,2.7637,2.7655,0,0,0,0,0,0,2.7453,2.746,2.7473,2.7487,2.7493,2.7532,2.7515,2.7516,2.7526,2.7525,2.7537,2.7538,2.7539,2.7566,2.757,2.7585,2.7559,2.7632,2.7634,2.7636,2.7653,2.7657,2.766,0,0,0,0,0,2.7451,2.7476,2.7473,2.7479,2.7509,2.7533,2.7536,2.7538,2.7527,2.7539,2.7545,2.7538,2.7581,2.7568,2.7573,2.7589,2.7631,2.7634,2.7636,2.7651,2.7656,2.766,0,0,0,0,0,0,2.7462,2.7478,2.7475,2.7506,2.7518,2.7531,2.7546,2.7542,2.7557,2.7555,2.7555,2.7557,2.7583,2.7588,2.7574,2.7619,2.7604,2.7608,2.7614,2.7619,2.7622,2.762,2.756,0,0,0,0,0,2.7468,2.7487,2.7499,2.7525,2.7532,2.7538,2.7548,2.7548,2.756,2.7565,2.7572,2.7583,2.7599,2.7609,2.7624,2.7654,2.7656,2.7667,2.767,2.7673,2.7676,2.7691,2.7696,2.7645,2.7645,2.7645,0,0,2.7481,2.7492,2.7503,2.7528,2.7537,2.7556,2.7542,2.7562,2.7575,2.7567,2.7592,2.7597,2.761,2.7637,2.7649,2.7642,2.7691,2.7676,2.7679,2.768,2.7694,2.7699,2.7704,2.7646,2.7646,2.7646,0,0,2.7513,2.7524,2.7547,2.7557,2.7572,2.7576,2.7581,2.7595,2.7599,2.7623,2.7618,2.7633,2.7661,2.767,2.7678,2.7714,2.7708,2.7719,2.7737,2.7752,2.7756,2.776,2.7772,2.7777,2.7722,2.7722,2.7722,0,2.7526,2.7555,2.7558,2.7579,2.7589,2.7585,2.7607,2.7616,2.7635,2.7642,2.7634,2.7669,2.7676,2.7706,2.7715,2.7722,2.7727,2.7717,2.7756,2.7759,2.7763,2.7774,2.7779,2.7723,2.7723,2.7723,2.7723,0,2.7571,2.7591,2.7607,2.7627,2.7639,2.766,2.7665,2.7677,2.7676,2.7681,2.7706,2.7715,2.7732,2.7739,2.7738,2.7768,2.7763,2.7756,2.7741,2.7769,2.778,2.7784,2.7725,2.7724,2.7724,2.7724,0,0,2.761,2.7632,2.7638,2.7646,2.7663,2.7678,2.7699,2.7717,2.7726,2.774,2.7756,2.778,2.7773,2.7783,2.7782,2.7796,2.7823,2.7787,2.7787,2.7792,2.7856,2.7861,2.7866,2.782,2.7821,2.7822,2.7855,0,2.7643,2.7681,2.7684,2.7718,2.7736,2.7732,2.775,2.7762,2.7767,2.7782,2.7786,2.7803,2.7793,2.7799,2.7812,2.7817,2.7836,2.7815,2.7834,2.7835,2.7831,2.7872,2.7878,2.7909,2.7859,2.786,2.7861,0,2.7686,2.7702,2.7738,2.7753,2.776,2.7777,2.7793,2.7808,2.7821,2.7823,2.7834,2.7832,2.7853,2.7838,2.7865,2.7851,2.7859,2.7863,2.7864,2.7865,2.7849,2.7874,2.7919,2.7923,2.7867,2.7867,2.7866,0,2.771,2.7741,2.7766,2.7774,2.7792,2.7803,2.7811,2.7823,2.7833,2.7847,2.7854,2.787,2.7878,2.789,2.7892,2.7882,2.7919,2.7905,2.7921,2.7921,2.7928,2.7928,2.7974,2.7935,2.7935,2.7935,2.7935,0,2.7746,2.7768,2.7777,2.7793,2.7817,2.782,2.7844,2.785,2.7861,2.7877,2.7875,2.7889,2.7892,2.7906,2.7908,2.793,2.7934,2.7936,2.7936,2.7936,2.7935,2.794,2.7938,2.7936,2.7936,2.7936,2.7935,0,2.7777,2.7784,2.7811,2.7826,2.7831,2.7848,2.786,2.7874,2.7879,2.7899,2.7904,2.7911,2.7929,2.7933,2.7953,2.7954,2.798,2.7978,2.7976,2.7976,2.7991,2.7989,2.8042,2.8048,2.8006,2.8006,2.8006,0,2.7799,2.7816,2.7833,2.7844,2.7853,2.7871,2.7882,2.7886,2.7897,2.7914,2.7926,2.7943,2.7957,2.7985,2.7992,2.8007,2.8005,2.8023,2.8007,2.8007,2.8005,2.8003,2.8005,2.8025,2.8026,2.8026,2.8026,0,2.7837,2.784,2.7857,2.7876,2.7889,2.7904,2.7917,2.7926,2.7932,2.7944,2.7963,2.7974,2.7996,2.8013,2.8028,2.8035,2.8031,2.8031,2.8036,2.8035,2.8033,2.8034,2.7983,2.803,2.8029,2.8029,2.8029,2.8029,2.7863,2.7878,2.7893,2.7912,2.7923,2.7936,2.795,2.7958,2.7974,2.7993,2.7994,2.8014,2.8026,2.8047,2.8054,2.8069,2.8064,2.807,2.8071,2.8073,2.8074,2.8031,2.8072,2.8072,2.8072,2.8072,2.8072,0,2.7901,2.7911,2.7928,2.7948,2.7963,2.796,2.7975,2.7987,2.8005,2.8018,2.8032,2.8053,2.807,2.8078,2.8094,2.8105,2.8103,2.8109,2.8107,2.8109,2.8078,2.8073,2.8109,2.8109,2.8109,2.8109,2.8109,2.8109,2.7922,2.7947,2.7952,2.7982,2.7991,2.8012,2.8021,2.8032,2.8042,2.8067,2.8081,2.8087,2.8097,2.8114,2.8129,2.8131,2.8137,2.8143,2.8144,2.8115,2.8111,2.8107,2.8102,2.8144,2.8144,2.8173,2.8173,2.8173]}]]